[[{"header":{"parameterUnit":"m.s-1","parameterCategory":2,"la1":30.2992,"la2":30.254,"lo1":-89.0895,"lo2":-89.0443,"dy":0.0025,"dx":0.0025,"nx":19,"ny":19,"refTime":"2026-04-08T09:00:00:Z","depth":"0","parameterNumber":2,"parameterNumberName":"U-component_of_CURRENTS"},"data":[0,0,0,-0.3181,-0.3184,-0.3296,-0.3296,-0.3405,-0.3406,0,0,0,0,0,0,0,0,0,0,0,-0.3129,-0.3129,-0.3181,-0.3184,-0.3296,-0.3296,-0.3405,-0.3406,0,0,0,0,0,0,0,0,0,0,0,-0.3128,-0.3129,-0.313,-0.3184,-0.3296,-0.3296,-0.3405,-0.3328,0,0,0,0,0,0,0,0,0,0,-0.3223,-0.3174,-0.3129,-0.313,-0.3185,-0.3296,-0.3296,-0.3325,-0.3333,-0.3345,0,-0.3357,0,-0.3392,-0.3413,-0.3413,0,0,0,-0.3181,-0.3168,-0.3207,-0.313,-0.3186,-0.3295,-0.3245,-0.333,-0.3339,-0.3356,-0.3359,-0.3364,-0.3393,-0.3413,-0.3414,-0.3535,-0.3536,0,0,-0.3175,-0.3142,-0.3201,-0.3213,-0.3208,-0.3241,-0.3248,-0.3335,-0.3335,-0.336,-0.3367,-0.3395,-0.3414,-0.3415,-0.3535,-0.3535,0,0,0,-0.3159,-0.3138,-0.3176,-0.3207,-0.3235,-0.3244,-0.3252,-0.3331,-0.3347,-0.3369,-0.3397,-0.3415,-0.3416,-0.3534,-0.3535,-0.3564,0,0,0,-0.3155,-0.3129,-0.3173,-0.3154,-0.3233,-0.3289,-0.3246,-0.334,-0.3352,-0.3396,-0.3415,-0.3417,-0.3533,-0.3535,-0.3561,-0.3558,0,0,0,-0.3125,-0.3126,-0.3139,-0.3152,-0.3205,-0.3288,-0.3308,-0.3343,-0.3369,-0.3413,-0.3417,-0.3533,-0.3534,-0.3559,-0.3556,-0.3566,0,0,0,-0.3088,-0.3122,-0.3138,-0.3199,-0.3203,-0.3318,-0.3308,-0.3386,-0.3428,-0.3415,-0.3534,-0.3535,-0.3559,-0.3554,-0.3564,-0.3396,-0.3389,0,0,-0.3117,-0.3124,-0.3169,-0.3187,-0.3297,-0.3303,-0.341,-0.3449,-0.345,-0.35,-0.3504,-0.3562,-0.3556,-0.3565,-0.3475,-0.3465,0,0,0,-0.3172,-0.3195,-0.3236,-0.3301,-0.3379,-0.3435,-0.3484,-0.3499,-0.354,-0.3482,-0.3582,-0.3577,-0.3582,-0.3478,-0.3472,-0.3369,-0.3541,-0.3541,-0.3541,-0.3134,-0.3211,-0.3282,-0.3377,-0.3448,-0.3534,-0.3571,-0.3595,-0.36,-0.3618,-0.3616,-0.3662,-0.3554,-0.3546,-0.3445,-0.3642,-0.3642,-0.3642,-0.3642,-0.3163,-0.3191,-0.3298,-0.3389,-0.3471,-0.3548,-0.3643,-0.365,-0.3686,-0.3673,-0.3677,-0.3533,-0.354,-0.3434,-0.3644,-0.3644,-0.3644,-0.3644,-0.3643,-0.3109,-0.3127,-0.3202,-0.3316,-0.3417,-0.3531,-0.3587,-0.3666,-0.3693,-0.3707,-0.3581,-0.3578,-0.3469,-0.3708,-0.3708,-0.3708,-0.3708,-0.3708,-0.3708,-0.2984,-0.3068,-0.3097,-0.3241,-0.3288,-0.3396,-0.3552,-0.3583,-0.3601,-0.3589,-0.3588,-0.3462,-0.3681,-0.366,-0.3709,-0.3709,-0.3709,-0.3708,-0.3708,-0.2871,-0.2904,-0.294,-0.2985,-0.3114,-0.3125,-0.3342,-0.3385,-0.3455,-0.3417,-0.3311,-0.3523,-0.349,-0.3494,-0.3468,-0.3464,-0.3464,-0.3464,-0.3464,-0.2739,-0.2782,-0.2757,-0.2784,-0.2858,-0.298,-0.291,-0.2997,-0.3078,-0.3045,-0.3159,-0.3093,-0.3108,-0.3052,-0.3065,-0.303,-0.2916,-0.2915,-0.2915,-0.2621,-0.2647,-0.2564,-0.2635,-0.2716,-0.2753,-0.2612,-0.262,-0.2764,-0.2891,-0.3056,-0.3079,-0.2988,-0.3018,-0.2934,-0.296,-0.2906,0,0]},{"header":{"parameterUnit":"m.s-1","parameterCategory":2,"la1":30.2992,"la2":30.254,"lo1":-89.0895,"lo2":-89.0443,"dy":0.0025,"dx":0.0025,"nx":19,"ny":19,"refTime":"2026-04-08T09:00:00:Z","depth":"0","parameterNumber":3,"parameterNumberName":"V-component_of_CURRENTS"},"data":[0,0,0,-0.0498,-0.0496,-0.0359,-0.0358,-0.0123,-0.0121,0,0,0,0,0,0,0,0,0,0,0,-0.0549,-0.0549,-0.0499,-0.0496,-0.0359,-0.0358,-0.0123,-0.0121,0,0,0,0,0,0,0,0,0,0,0,-0.0549,-0.0549,-0.0548,-0.0496,-0.0359,-0.0358,-0.0124,-0.0236,0,0,0,0,0,0,0,0,0,0,-0.0375,-0.0447,-0.0549,-0.0548,-0.0495,-0.0359,-0.0358,-0.0242,-0.0229,-0.0176,0,-0.0172,0,-0.0148,-0.0106,-0.0105,0,0,0,-0.0472,-0.0458,-0.0416,-0.0548,-0.0494,-0.036,-0.0414,-0.0235,-0.0221,-0.0158,-0.0169,-0.016,-0.0144,-0.0105,-0.0103,0.004,0.004,0,0,-0.048,-0.0519,-0.0427,-0.0408,-0.048,-0.0419,-0.041,-0.0227,-0.0222,-0.0168,-0.0155,-0.014,-0.0103,-0.0101,0.004,0.004,0,0,0,-0.0518,-0.0525,-0.0488,-0.0418,-0.0401,-0.0415,-0.0405,-0.023,-0.0218,-0.0152,-0.0137,-0.0102,-0.0099,0.004,0.004,-0.009,0,0,0,-0.0521,-0.0548,-0.0492,-0.0513,-0.0406,-0.0325,-0.0413,-0.023,-0.0209,-0.0139,-0.0102,-0.0097,0.004,0.004,-0.0087,-0.0149,0,0,0,-0.0552,-0.0551,-0.0542,-0.0516,-0.0466,-0.0327,-0.0303,-0.0225,-0.02,-0.0105,-0.0096,0.004,0.004,-0.0083,-0.0142,-0.012,0,0,0,-0.0586,-0.0609,-0.0543,-0.0565,-0.0468,-0.0414,-0.0304,-0.0244,-0.0175,-0.0101,0.004,0.004,-0.0082,-0.0138,-0.0117,-0.0059,-0.0068,0,0,-0.064,-0.0617,-0.0631,-0.0569,-0.0567,-0.043,-0.0397,-0.026,-0.0154,-0.0011,-0.0007,-0.0088,-0.0142,-0.0119,-0.0072,-0.0081,0,0,0,-0.0665,-0.0682,-0.0668,-0.065,-0.0575,-0.0501,-0.036,-0.0283,-0.0158,-0.0117,-0.0056,-0.0085,-0.0067,-0.0024,-0.0031,0.0258,0.0039,0.0039,0.0039,-0.0775,-0.0747,-0.0779,-0.0731,-0.0683,-0.0538,-0.0461,-0.032,-0.0216,-0.0182,-0.0168,-0.021,-0.0168,-0.0172,0.0125,-0.0136,-0.0136,-0.0137,-0.0137,-0.0888,-0.0917,-0.087,-0.0893,-0.0793,-0.0738,-0.0544,-0.0453,-0.031,-0.0244,-0.0219,-0.0136,-0.0186,0.0133,-0.0145,-0.0144,-0.0143,-0.0142,-0.0141,-0.0975,-0.0989,-0.0997,-0.1022,-0.0989,-0.0861,-0.0795,-0.0621,-0.0437,-0.0409,-0.0279,-0.0275,-0.0009,-0.0377,-0.0377,-0.0377,-0.0377,-0.0377,-0.0377,-0.1062,-0.1071,-0.1144,-0.1153,-0.1169,-0.1124,-0.0928,-0.0812,-0.0564,-0.0404,-0.0402,0.0025,-0.0281,-0.0288,-0.0381,-0.038,-0.038,-0.0379,-0.0379,-0.1172,-0.1175,-0.1294,-0.1339,-0.1373,-0.1364,-0.1174,-0.0877,-0.07,-0.0565,0.0003,-0.0359,-0.0295,-0.0287,-0.0291,-0.0379,-0.0379,-0.0379,-0.0379,-0.1242,-0.1255,-0.1415,-0.1509,-0.1561,-0.1473,-0.1323,-0.0959,-0.0318,0.0045,0.0167,0.026,0.0247,0.035,0.0344,0.0356,0.0435,0.0437,0.0438,-0.1311,-0.1358,-0.1478,-0.1573,-0.1645,-0.1575,-0.1409,-0.095,0.0023,0.0501,0.0559,0.0524,0.069,0.0647,0.0833,0.08,0.0828,0,0]}],[{"header":{"parameterUnit":"m.s-1","parameterCategory":2,"la1":30.2992,"la2":30.254,"lo1":-89.0895,"lo2":-89.0443,"dy":0.0025,"dx":0.0025,"nx":19,"ny":19,"refTime":"2026-04-08T09:00:00:Z","depth":"2","parameterNumber":2,"parameterNumberName":"U-component_of_CURRENTS"},"data":[0,0,0,-0.2858,-0.286,-0.2969,-0.297,-0.3067,-0.3068,0,0,0,0,0,0,0,0,0,0,0,-0.2809,-0.281,-0.2858,-0.2861,-0.2969,-0.297,-0.3067,-0.3068,0,0,0,0,0,0,0,0,0,0,0,-0.2809,-0.281,-0.281,-0.2861,-0.2969,-0.297,-0.3067,-0.2995,0,0,0,0,0,0,0,0,0,0,-0.2894,-0.2853,-0.281,-0.281,-0.2862,-0.2969,-0.297,-0.2992,-0.2999,-0.3006,0,-0.302,0,-0.3052,-0.3074,-0.3074,0,0,0,-0.2859,-0.2846,-0.2881,-0.2811,-0.2863,-0.2969,-0.292,-0.2996,-0.3005,-0.3016,-0.3022,-0.3026,-0.3053,-0.3074,-0.3075,-0.3189,-0.3189,0,0,-0.2853,-0.2825,-0.2875,-0.2886,-0.2887,-0.2916,-0.2923,-0.3002,-0.3004,-0.3022,-0.3029,-0.3055,-0.3075,-0.3075,-0.3188,-0.3189,0,0,0,-0.2837,-0.2821,-0.2855,-0.2882,-0.2908,-0.2919,-0.2927,-0.3,-0.3013,-0.303,-0.3056,-0.3075,-0.3076,-0.3188,-0.3188,-0.3223,0,0,0,-0.2833,-0.2812,-0.2852,-0.2836,-0.2907,-0.2962,-0.2924,-0.3007,-0.3018,-0.3056,-0.3075,-0.3077,-0.3187,-0.3188,-0.3221,-0.3219,0,0,0,-0.2805,-0.281,-0.2822,-0.2835,-0.2885,-0.2961,-0.2979,-0.3011,-0.3034,-0.3074,-0.3077,-0.3186,-0.3188,-0.3218,-0.3216,-0.3228,0,0,0,-0.2774,-0.2803,-0.2821,-0.2874,-0.2884,-0.2986,-0.2979,-0.3051,-0.309,-0.3076,-0.3187,-0.3188,-0.3218,-0.3214,-0.3227,-0.3051,-0.3044,0,0,-0.2797,-0.2804,-0.2842,-0.2862,-0.2957,-0.297,-0.3068,-0.3108,-0.3112,-0.3156,-0.3159,-0.3221,-0.3216,-0.3228,-0.3134,-0.3125,0,0,0,-0.2843,-0.2862,-0.2897,-0.2956,-0.3027,-0.3086,-0.3135,-0.3154,-0.3202,-0.3142,-0.3241,-0.3237,-0.3243,-0.3134,-0.3128,-0.3195,-0.3195,-0.3195,-0.3195,-0.281,-0.2876,-0.2936,-0.3019,-0.3086,-0.3174,-0.3216,-0.3248,-0.3254,-0.328,-0.328,-0.3332,-0.3219,-0.3211,-0.3307,-0.3307,-0.3307,-0.3307,-0.3307,-0.2829,-0.2851,-0.2949,-0.3028,-0.3112,-0.3189,-0.3288,-0.3303,-0.335,-0.334,-0.3344,-0.3195,-0.3205,-0.331,-0.331,-0.3309,-0.3309,-0.3309,-0.3309,-0.278,-0.2794,-0.2864,-0.2966,-0.3068,-0.3181,-0.3242,-0.3328,-0.3364,-0.3383,-0.3253,-0.3249,-0.3329,-0.3387,-0.3387,-0.3388,-0.3388,-0.3388,-0.3388,-0.2671,-0.2743,-0.277,-0.2902,-0.2949,-0.3058,-0.3217,-0.3251,-0.3274,-0.3266,-0.3265,-0.3359,-0.3356,-0.3334,-0.3389,-0.3389,-0.3389,-0.3388,-0.3388,-0.2565,-0.26,-0.2626,-0.2669,-0.2786,-0.279,-0.3006,-0.3052,-0.3127,-0.309,-0.3194,-0.3198,-0.3162,-0.3165,-0.3138,-0.314,-0.314,-0.314,-0.314,-0.2451,-0.2488,-0.2459,-0.2478,-0.2538,-0.2648,-0.2567,-0.2614,-0.277,-0.2778,-0.2793,-0.2724,-0.2742,-0.268,-0.2694,-0.2657,-0.2533,-0.2531,-0.253,-0.2344,-0.2364,-0.2284,-0.2338,-0.2401,-0.2423,-0.2258,-0.2139,-0.2246,-0.2506,-0.2687,-0.3099,-0.3038,-0.305,-0.2988,-0.2998,-0.2951,0,0]},{"header":{"parameterUnit":"m.s-1","parameterCategory":2,"la1":30.2992,"la2":30.254,"lo1":-89.0895,"lo2":-89.0443,"dy":0.0025,"dx":0.0025,"nx":19,"ny":19,"refTime":"2026-04-08T09:00:00:Z","depth":"2","parameterNumber":3,"parameterNumberName":"V-component_of_CURRENTS"},"data":[0,0,0,-0.0437,-0.0435,-0.0314,-0.0313,-0.0102,-0.01,0,0,0,0,0,0,0,0,0,0,0,-0.0482,-0.0481,-0.0437,-0.0435,-0.0314,-0.0313,-0.0102,-0.01,0,0,0,0,0,0,0,0,0,0,0,-0.0482,-0.0481,-0.0481,-0.0434,-0.0314,-0.0313,-0.0103,-0.0203,0,0,0,0,0,0,0,0,0,0,-0.0325,-0.0391,-0.0482,-0.0481,-0.0434,-0.0314,-0.0313,-0.0208,-0.0196,-0.0148,0,-0.0146,0,-0.0125,-0.0087,-0.0086,0,0,0,-0.0413,-0.0401,-0.0363,-0.0481,-0.0433,-0.0315,-0.0362,-0.0202,-0.0189,-0.0132,-0.0143,-0.0135,-0.0121,-0.0086,-0.0085,0.0039,0.0039,0,0,-0.0419,-0.0456,-0.0373,-0.0356,-0.0422,-0.0366,-0.0359,-0.0194,-0.0191,-0.0142,-0.013,-0.0118,-0.0084,-0.0083,0.0039,0.0039,0,0,0,-0.0453,-0.0461,-0.0428,-0.0364,-0.035,-0.0363,-0.0355,-0.0198,-0.0187,-0.0128,-0.0115,-0.0083,-0.0081,0.004,0.0039,-0.009,0,0,0,-0.0456,-0.0482,-0.0431,-0.0451,-0.0355,-0.0283,-0.0363,-0.0198,-0.0179,-0.0116,-0.0083,-0.0079,0.004,0.0039,-0.0087,-0.0145,0,0,0,-0.0484,-0.0484,-0.0476,-0.0453,-0.041,-0.0285,-0.0263,-0.0193,-0.0171,-0.0086,-0.0078,0.004,0.0039,-0.0083,-0.0138,-0.0122,0,0,0,-0.0515,-0.054,-0.0478,-0.0503,-0.0411,-0.037,-0.0264,-0.0214,-0.0153,-0.0082,0.004,0.0039,-0.0082,-0.0134,-0.0119,-0.0063,-0.0073,0,0,-0.0569,-0.0547,-0.0564,-0.0506,-0.0512,-0.0383,-0.0362,-0.0236,-0.0135,-0.0006,-0.0003,-0.0088,-0.0138,-0.0122,-0.0083,-0.0092,0,0,0,-0.0597,-0.0614,-0.0604,-0.0592,-0.0527,-0.0463,-0.0334,-0.0262,-0.0148,-0.0103,-0.0058,-0.0084,-0.0071,-0.003,-0.0036,0.0038,0.0038,0.0038,0.0038,-0.0704,-0.068,-0.0716,-0.0676,-0.0637,-0.0508,-0.0439,-0.0307,-0.0209,-0.0179,-0.0169,-0.0218,-0.0177,-0.0181,-0.0141,-0.0142,-0.0142,-0.0142,-0.0143,-0.0813,-0.0844,-0.0806,-0.0834,-0.0747,-0.0703,-0.0527,-0.0441,-0.0312,-0.0245,-0.0225,-0.0143,-0.0196,-0.0152,-0.015,-0.0149,-0.0148,-0.0147,-0.0147,-0.0896,-0.0912,-0.0923,-0.0956,-0.0934,-0.0821,-0.0767,-0.0607,-0.0435,-0.0413,-0.029,-0.0286,-0.0285,-0.0386,-0.0386,-0.0387,-0.0387,-0.0387,-0.0387,-0.0976,-0.099,-0.1062,-0.108,-0.11,-0.1067,-0.0894,-0.0786,-0.0559,-0.0413,-0.0411,-0.0298,-0.029,-0.0295,-0.039,-0.039,-0.0389,-0.0389,-0.0389,-0.1081,-0.1086,-0.1202,-0.1249,-0.1292,-0.1288,-0.1123,-0.085,-0.0689,-0.0562,-0.0375,-0.0374,-0.031,-0.0302,-0.0305,-0.0397,-0.0397,-0.0397,-0.0397,-0.1146,-0.116,-0.1315,-0.1408,-0.1464,-0.1388,-0.1252,-0.0925,-0.0577,-0.0384,-0.0385,-0.0343,-0.0342,-0.0276,-0.0268,-0.0269,-0.0352,-0.0352,-0.0352,-0.1211,-0.1256,-0.1372,-0.1466,-0.154,-0.1478,-0.1322,-0.0913,-0.0429,-0.0353,-0.0413,-0.0387,-0.0323,-0.0323,-0.0215,-0.0206,-0.0203,0,0]}],[{"header":{"parameterUnit":"m.s-1","parameterCategory":2,"la1":30.2992,"la2":30.254,"lo1":-89.0895,"lo2":-89.0443,"dy":0.0025,"dx":0.0025,"nx":19,"ny":19,"refTime":"2026-04-08T09:00:00:Z","depth":"4","parameterNumber":2,"parameterNumberName":"U-component_of_CURRENTS"},"data":[0,0,0,-0.2005,-0.2009,-0.2189,-0.2189,-0.2319,-0.232,0,0,0,0,0,0,0,0,0,0,0,-0.1946,-0.1947,-0.2005,-0.2009,-0.2188,-0.2189,-0.2319,-0.232,0,0,0,0,0,0,0,0,0,0,0,-0.1945,-0.1947,-0.1948,-0.201,-0.2188,-0.2189,-0.2319,-0.2209,0,0,0,0,0,0,0,0,0,0,-0.2047,-0.2013,-0.1946,-0.1948,-0.2011,-0.2188,-0.2189,-0.2205,-0.2216,-0.2208,0,-0.2244,0,-0.2281,-0.2326,-0.2326,0,0,0,-0.2013,-0.2004,-0.2044,-0.1948,-0.2012,-0.2188,-0.2109,-0.2212,-0.2224,-0.2222,-0.2246,-0.2252,-0.2283,-0.2326,-0.2327,-0.2453,-0.2454,0,0,-0.2003,-0.1984,-0.2036,-0.2052,-0.2068,-0.2103,-0.2114,-0.222,-0.2238,-0.2246,-0.2255,-0.2285,-0.2327,-0.2328,-0.2453,-0.2453,0,0,0,-0.1972,-0.1977,-0.2017,-0.2046,-0.2085,-0.2108,-0.2121,-0.2234,-0.2246,-0.2257,-0.2287,-0.2328,-0.2329,-0.2452,-0.2453,-0.2494,0,0,0,-0.1966,-0.1958,-0.2013,-0.2004,-0.2084,-0.2177,-0.2132,-0.2239,-0.2252,-0.2286,-0.2328,-0.233,-0.2451,-0.2452,-0.2491,-0.2492,0,0,0,-0.1936,-0.1955,-0.1977,-0.2002,-0.2078,-0.2177,-0.2196,-0.2243,-0.2269,-0.2326,-0.233,-0.2451,-0.2452,-0.2488,-0.2488,-0.2504,0,0,0,-0.1907,-0.194,-0.1977,-0.2034,-0.2076,-0.2184,-0.2196,-0.229,-0.2344,-0.2328,-0.2451,-0.2453,-0.2488,-0.2486,-0.2502,-0.2185,0,0,0,-0.1923,-0.1942,-0.1976,-0.2013,-0.2105,-0.2159,-0.2267,-0.2343,-0.2362,-0.2407,-0.2412,-0.2492,-0.2488,-0.2504,-0.2288,0,0,0,0,-0.1964,-0.1987,-0.2023,-0.2094,-0.2175,-0.2266,-0.2348,-0.2385,-0.2467,-0.2403,-0.2515,-0.2511,-0.2519,-0.233,-0.2461,-0.2461,-0.2461,-0.246,-0.246,-0.194,-0.1997,-0.2059,-0.2143,-0.2224,-0.2351,-0.242,-0.2486,-0.2504,-0.2554,-0.2562,-0.2624,-0.2429,-0.2591,-0.2591,-0.2591,-0.2591,-0.2591,-0.2592,-0.194,-0.196,-0.2072,-0.2153,-0.2267,-0.2371,-0.25,-0.2543,-0.2625,-0.2625,-0.2632,-0.2409,-0.2596,-0.2595,-0.2595,-0.2594,-0.2594,-0.2593,-0.2593,-0.1886,-0.1899,-0.1987,-0.2108,-0.2245,-0.2386,-0.2466,-0.2583,-0.2649,-0.2678,-0.2473,-0.2648,-0.2622,-0.2692,-0.2692,-0.2692,-0.2692,-0.2692,-0.2692,-0.1771,-0.1855,-0.1907,-0.2059,-0.2136,-0.2268,-0.246,-0.2497,-0.2605,-0.2476,-0.2693,-0.2657,-0.2654,-0.2628,-0.2694,-0.2694,-0.2693,-0.2693,-0.2693,-0.1653,-0.1716,-0.1762,-0.1834,-0.1988,-0.2059,-0.2291,-0.2316,-0.2332,-0.2275,-0.236,-0.2376,-0.2324,-0.2329,-0.229,-0.2257,-0.2253,-0.225,0,-0.155,-0.1592,-0.1616,-0.1664,-0.1716,-0.1912,-0.1868,-0.1969,-0.2072,-0.2003,-0.232,-0.2414,-0.2424,-0.2366,-0.2364,-0.2316,0,0,0,-0.1457,-0.1483,-0.1446,-0.1528,-0.1573,-0.1662,-0.1841,-0.1799,-0.2071,-0.2,-0.2152,-0.2178,-0.2486,-0.2699,-0.2658,-0.2654,-0.2611,0,0]},{"header":{"parameterUnit":"m.s-1","parameterCategory":2,"la1":30.2992,"la2":30.254,"lo1":-89.0895,"lo2":-89.0443,"dy":0.0025,"dx":0.0025,"nx":19,"ny":19,"refTime":"2026-04-08T09:00:00:Z","depth":"4","parameterNumber":3,"parameterNumberName":"V-component_of_CURRENTS"},"data":[0,0,0,-0.0307,-0.0306,-0.024,-0.024,-0.0098,-0.0097,0,0,0,0,0,0,0,0,0,0,0,-0.0333,-0.0333,-0.0307,-0.0306,-0.024,-0.024,-0.0099,-0.0097,0,0,0,0,0,0,0,0,0,0,0,-0.0333,-0.0333,-0.0333,-0.0306,-0.024,-0.024,-0.0099,-0.0159,0,0,0,0,0,0,0,0,0,0,-0.0228,-0.0273,-0.0333,-0.0333,-0.0306,-0.024,-0.024,-0.0162,-0.0155,-0.0117,0,-0.0122,0,-0.0111,-0.0088,-0.0088,0,0,0,-0.0289,-0.0279,-0.0257,-0.0333,-0.0305,-0.0241,-0.0265,-0.0159,-0.015,-0.0108,-0.012,-0.0115,-0.0109,-0.0087,-0.0087,-0.001,-0.0011,0,0,-0.0293,-0.0317,-0.0263,-0.0253,-0.0306,-0.0267,-0.0263,-0.0154,-0.0154,-0.012,-0.0112,-0.0106,-0.0086,-0.0085,-0.001,-0.0011,0,0,0,-0.0315,-0.032,-0.0302,-0.0259,-0.0254,-0.0266,-0.0261,-0.0159,-0.0153,-0.011,-0.0105,-0.0086,-0.0084,-0.001,-0.001,-0.0127,0,0,0,-0.0316,-0.0334,-0.0304,-0.0317,-0.0257,-0.0215,-0.0269,-0.016,-0.0148,-0.0105,-0.0085,-0.0082,-0.001,-0.001,-0.0124,-0.0173,0,0,0,-0.0333,-0.0335,-0.0333,-0.0319,-0.0297,-0.0217,-0.0204,-0.0157,-0.0144,-0.0088,-0.0082,-0.001,-0.001,-0.012,-0.0167,-0.016,0,0,0,-0.0351,-0.0377,-0.0334,-0.0364,-0.0298,-0.0288,-0.0204,-0.0181,-0.0143,-0.0085,-0.001,-0.001,-0.0119,-0.0163,-0.0157,-0.016,0,0,0,-0.0397,-0.0383,-0.0403,-0.0363,-0.0388,-0.0295,-0.03,-0.0211,-0.0131,-0.0038,-0.0036,-0.0125,-0.0166,-0.0159,-0.0186,0,0,0,0,-0.0426,-0.0445,-0.0444,-0.0448,-0.0415,-0.0383,-0.0294,-0.0242,-0.0163,-0.0112,-0.0101,-0.0123,-0.0115,-0.0107,-0.0013,-0.0013,-0.0012,-0.0012,-0.0012,-0.0506,-0.0499,-0.0542,-0.0528,-0.0514,-0.0437,-0.0396,-0.03,-0.0223,-0.0203,-0.0201,-0.0254,-0.025,-0.018,-0.0181,-0.0181,-0.0182,-0.0182,-0.0182,-0.0592,-0.0621,-0.0616,-0.0657,-0.0615,-0.0603,-0.0485,-0.0421,-0.0333,-0.0275,-0.0261,-0.0211,-0.0193,-0.0191,-0.0189,-0.0188,-0.0187,-0.0187,-0.0186,-0.0646,-0.0662,-0.0693,-0.0749,-0.0765,-0.0703,-0.0681,-0.0571,-0.0439,-0.0429,-0.0361,-0.0307,-0.0314,-0.041,-0.041,-0.041,-0.041,-0.041,-0.0411,-0.0682,-0.0715,-0.0789,-0.0841,-0.0881,-0.0885,-0.0786,-0.0707,-0.0567,-0.0481,-0.045,-0.0329,-0.0321,-0.0324,-0.0414,-0.0413,-0.0413,-0.0413,-0.0412,-0.0736,-0.0759,-0.0869,-0.0932,-0.1015,-0.101,-0.0937,-0.0754,-0.0669,-0.0561,-0.0479,-0.0475,-0.0418,-0.0408,-0.0411,-0.0531,-0.0532,-0.0532,0,-0.0765,-0.0787,-0.0931,-0.1032,-0.1095,-0.107,-0.0968,-0.0851,-0.0664,-0.0664,-0.0662,-0.0578,-0.0571,-0.0515,-0.0506,-0.0516,0,0,0,-0.0796,-0.0841,-0.0939,-0.1048,-0.1123,-0.1003,-0.0933,-0.0861,-0.071,-0.0598,-0.0541,-0.0539,-0.0501,-0.0424,-0.0326,-0.0317,-0.0314,0,0]}]]